Regional Weather Roundup
Issued by NWS

Home | Current Version | Previous Version | Text Only | Print | Product List | Glossary Off
Versions: 1 2 3 4 5 6 7 8 9 10 11 12 13 14 15 16 17 18 19 20 21 22 23 24 25 26 27 28 29 30 31 32 33 34 35 36 37 38 39 40 41 42 43 44 45 46 47 48 49 50

000
ASUS43 KFSD 201210
RWRSD

WEATHER ROUNDUP FOR SOUTH DAKOTA
NATIONAL WEATHER SERVICE SIOUX FALLS SD
600 AM CST MON NOV 20 2017

NOTE: "FAIR" INDICATES FEW OR NO CLOUDS BELOW 12,000 FEET WITH NO
SIGNIFICANT WEATHER AND/OR OBSTRUCTIONS TO VISIBILITY.


SDZ001>005-009-010-012>017-201300-
NORTHWEST AND NORTH CENTRAL SOUTH DAKOTA

CITY           SKY/WX    TMP DP  RH WIND       PRES   REMARKS
BUFFALO          N/A     41  15  35 W10       29.48S
FAITH            N/A     37  20  50 SW12      29.55F
MOBRIDGE       CLOUDY    30  22  72 SE5       29.50F WCI  25
$$

SDZ012>016-024>037-041>051-057-063-072>074-201300-
SOUTHWEST AND SOUTH CENTRAL SOUTH DAKOTA

CITY           SKY/WX    TMP DP  RH WIND       PRES   REMARKS
RAPID CTY ARPT CLOUDY    35  15  44 CALM      29.58F
PIERRE         CLOUDY    31  21  66 SW6       29.55F WCI  25
CUSTER         CLOUDY    38   7  27 W14       29.68S
ELLSWORTH AFB  CLOUDY    44  12  26 SW7       29.57F
PHILIP         CLOUDY    35  21  56 W9        29.59F WCI  28
PINE RIDGE     CLOUDY    35  15  44 W7        29.68F WCI  29
SPEARFISH      FAIR      46   9  21 CALM      29.59F
WINNER         FAIR      37  19  48 SW10      29.60S
$$

SDZ004>011-016>023-039-040-201300-
NORTHEAST SOUTH DAKOTA

CITY           SKY/WX    TMP DP  RH WIND       PRES   REMARKS
ABERDEEN       CLOUDY    23  21  92 S6        29.55F WCI  16
WATERTOWN      CLOUDY    28  23  81 S10       29.56F WCI  19
BROOKINGS      CLOUDY    28  23  81 SE7       29.60  WCI  21
SISSETON         N/A     30  24  78 S9        29.53  WCI  22
$$

SDZ017-020-022-023-036>040-048>070-201300-
SOUTHEAST SOUTH DAKOTA

CITY           SKY/WX    TMP DP  RH WIND       PRES   REMARKS
SIOUX FALLS    CLOUDY    32  24  72 S7        29.62F WCI  26
HURON          CLOUDY    26  22  84 S6        29.58F WCI  19
CHAMBERLAIN    CLOUDY    31  22  69 SW7       29.59F WCI  25
MITCHELL       CLOUDY    28  22  78 S5        29.60F WCI  23
YANKTON        CLOUDY    33  24  69 SE6       29.63F WCI  28
$$

ABBREVIATIONS USED IN REMARKS
   TC - TEMPERATURE IN CELSIUS
  WCI - WIND CHILL INDEX
   HX - HEAT INDEX
  VSB - VISIBILITY





USA.gov is the U.S. government's official web portal to all federal, state and local government web resources and services.